+ View the NASA Portal
+ Center for Near-Earth Object Studies
IMPORTANT:
The SSD Announcement email list is now available. Major changes are coming in the near future, including possible hostname and/or URL changes. To be notified of such changes, subscribe to this email list.
Please visit
this page
for more details.
Don't show this message again
JPL Small-Body Database Browser
Search:
[
help
]
266239 (2006 XT40)
Classification:
Main-belt Asteroid
SPK-ID:
2266239
[
Ephemeris
|
Orbit Diagram
|
Orbital Elements
|
Mission Design
|
Physical Parameters
|
Discovery Circumstances
|
Close-Approach Data
]
[ show orbit diagram ]
Orbital Elements at Epoch 2458600.5 (2019-Apr-27.0) TDB
Reference:
JPL 13
(heliocentric ecliptic J2000)
Element
Value
Uncertainty (1-sigma)
Units
e
.1270859209525547
6.9568e-08
a
2.421091840492438
1.7709e-08
au
q
2.11340515423274
1.6184e-07
au
i
3.690935944712932
6.8002e-06
deg
node
157.0469105213914
7.6347e-05
deg
peri
1.326597407387865
8.0381e-05
deg
M
45.5715543747154
2.3806e-05
deg
t
p
2458426.316639880095
(2018-Nov-03.81663988)
9.0319e-05
TDB
period
1375.990143490848
3.77
1.5097e-05
4.133e-08
d
yr
n
.2616297810729153
2.8705e-09
deg/d
Q
2.728778526752135
1.9959e-08
au
Orbit Determination Parameters
# obs. used (total)
299
data-arc span
7050 days (19.30 yr)
first obs. used
2000-03-03
last obs. used
2019-06-22
planetary ephem.
DE431
SB-pert. ephem.
SB431-N16
condition code
0
norm. resid. RMS
.62097
source
ORB
producer
Otto Matic
solution date
2019-Sep-24 04:36:26
Additional Information
Earth MOID
= 1.12296 au
Jupiter MOID
= 2.25311 au
T_jup
= 3.500
[ show covariance matrix ]
[
Ephemeris
|
Orbit Diagram
|
Orbital Elements
|
Mission Design
|
Physical Parameters
|
Discovery Circumstances
|
Close-Approach Data
]
Physical Parameter Table
Parameter
Symbol
Value
Units
Sigma
Reference
Notes
absolute magnitude
H
16.9
n/a
MPO433728
266239 (2006 XT40)
Discovered 2006-Dec-12 by Spacewatch at Kitt Peak
Reference:
20110218/Numbers.arc
Last Updated:
2011-02-22
[ show close-approach data ]
[
Ephemeris
|
Orbit Diagram
|
Orbital Elements
|
Mission Design
|
Physical Parameters
|
Discovery Circumstances
|
Close-Approach Data
]
2019-Dec-06 21:24 UT
(server date/time)
Site Manager:
Ryan S. Park
Webmaster
:
Alan B. Chamberlin